This is the latest recevied weather packets stored in our database for station/object KE4ODN. If no packets are shown the sender has not sent any weather packets the latest 10 day(s).
| Time | Temp. | Humidity | Pressure | Rain* | Wind** | Luminosity | Snow |
|---|---|---|---|---|---|---|---|
| 1777617363 | 14.44° C | 88% | 1013.4 hPa | 0 mm | - | 0 W/m² | - |
| 1777615923 | 14.44° C | 87% | 1013.5 hPa | 0 mm | - | 0 W/m² | - |
| 1777615203 | 14.44° C | 87% | 1013.5 hPa | 0 mm | - | 0 W/m² | - |
| 1777614243 | 14.44° C | 86% | 1013.4 hPa | 0 mm | - | 0 W/m² | - |
| 1777613043 | 14.44° C | 87% | 1013.3 hPa | 0 mm | - | 0 W/m² | - |
| 1777609443 | 15° C | 85% | 1013.1 hPa | 0 mm | - | 0 W/m² | - |
| 1777609203 | 14.44° C | 85% | 1013.1 hPa | 0 mm | - | 0 W/m² | - |
| 1777608963 | 14.44° C | 85% | 1013.4 hPa | 0 mm | - | 0 W/m² | - |
| 1777608723 | 14.44° C | 84% | 1013.3 hPa | 0 mm | - | 0 W/m² | - |
| 1777608504 | 14.44° C | 85% | 1013.5 hPa | 0 mm | - | 0 W/m² | - |
| 1777607043 | 15° C | 83% | 1013.5 hPa | 0 mm | - | 0 W/m² | - |
| 1777606803 | 15° C | 82% | 1013.6 hPa | 0 mm | - | 0 W/m² | - |
| 1777605603 | 15° C | 80% | 1013.3 hPa | 0 mm | - | 0 W/m² | - |
| 1777602264 | 15° C | 78% | 1013.4 hPa | 0 mm | - | 0 W/m² | - |
| 1777601523 | 15.56° C | 77% | 1013.1 hPa | 0 mm | - | 0 W/m² | - |
| 1777601043 | 15.56° C | 76% | 1012.8 hPa | 0 mm | - | 0 W/m² | - |
| 1777600323 | 15.56° C | 76% | 1012.9 hPa | 0 mm | - | 0 W/m² | - |
| 1777598883 | 16.11° C | 72% | 1012.6 hPa | 0 mm | - | 0 W/m² | - |
| 1777598664 | 16.11° C | 73% | 1012.7 hPa | 0 mm | - | 0 W/m² | - |
| 1777597923 | 16.11° C | 75% | 1012.6 hPa | 0 mm | - | 0 W/m² | - |
| 1777597443 | 16.67° C | 74% | 1012.5 hPa | 0 mm | - | 0 W/m² | - |
| 1777597224 | 16.67° C | 71% | 1012.6 hPa | 0 mm | - | 0 W/m² | - |
| 1777595284 | 17.22° C | 71% | 1012.6 hPa | 0 mm | - | 0 W/m² | - |
| 1777594324 | 17.78° C | 72% | 1012.2 hPa | 0 mm | - | 9 W/m² | - |
| 1777592644 | 18.33° C | 74% | 1012 hPa | 0 mm | - | 18 W/m² | - |
* Rain latest hour (hover to see other rain measurements)
** Current wind speed in m/s (hover to see current wind gust speed)